Flag for U.S.A. Weather past 2 weeks in Santa Cruz, California, U.S.A.

Now
46 °F

Clear.


Feels Like: 44 °F
Forecast: 49 / 66 °F
Wind: 5 mph from Northwest

Location: Watsonville Municipal Airport

Current Time: Jan 28, 2015 at 6:59:54 AM

Latest Report: Jan 28, 2015 at 5:53 AM


Visibility: 10 mi

Pressure: 30.24 "Hg

Humidity: 86%

Dew point: 42 °F

Location of Santa CruzLocation

Historic Weather in Santa Cruz — Graph

°F

Santa Cruz temperature yesterday

Maximum temperature yesterday: 68 °F (at 2:53 PM)
Minimum temperature yesterday: 50 °F (at 11:53 PM)
Average temperature yesterday: 59 °F

Past Weeks' High & Low Weather Summary

 TemperatureHumidityPressure
High82 °F (Jan 25, 2:53 PM)97% (Jan 13, 6:53 AM)30.34 "Hg (Jan 13, 6:53 AM)
Low40 °F (Jan 23, 6:53 AM)20% (Jan 25, 1:53 PM)29.96 "Hg (Jan 26, 3:53 PM)
Average55 °F71%30.18 "Hg
* Reported Jan 13 6:03 AM — Jan 28 5:53 AM, Santa Cruz, Weather by CustomWeather, © 2014

Note: Actual official high and low records may vary slightly from our data, if they occured in-between our weather recording intervals... More about our weather records

Advertising

Santa Cruz weather history for previous 24 hours

 ConditionsComfort  
Time TempWeatherWind HumidityBarometerVisibility
5:53 AM
Jan 28
46 °FClear.5 mph86%30.24 "Hg10 mi
4:53 AM45 °FClear.No wind86%30.24 "Hg10 mi
3:53 AM47 °FClear.3 mph86%30.24 "Hg10 mi
2:53 AM47 °FClear.3 mph86%30.25 "Hg10 mi
1:53 AM48 °FClear.No wind83%30.24 "Hg10 mi
12:53 AM50 °FClear.6 mph80%30.23 "Hg10 mi
11:53 PM
Jan 27
50 °FClear.5 mph83%30.24 "Hg10 mi
10:53 PM52 °FClear.3 mph77%30.25 "Hg10 mi
9:53 PM52 °FClear.5 mph80%30.25 "Hg10 mi
8:53 PM53 °FClear.6 mph80%30.25 "Hg10 mi
7:53 PM55 °FClear.No wind74%30.24 "Hg10 mi
6:53 PM58 °FClear.No wind67%30.23 "Hg10 mi
5:53 PM60 °FClear.No wind62%30.22 "Hg10 mi
4:53 PM65 °FSunny.No wind54%30.20 "Hg10 mi
3:53 PM63 °FSunny.8 mph60%30.20 "Hg10 mi
2:53 PM68 °FSunny.3 mph53%30.20 "Hg10 mi
1:53 PM66 °FPassing clouds.No wind56%30.20 "Hg10 mi
12:53 PM65 °FPartly sunny.No wind59%30.20 "Hg10 mi
11:53 AM63 °FOvercast.3 mph63%30.22 "Hg10 mi
10:53 AM62 °FOvercast.No wind65%30.22 "Hg10 mi
9:53 AM61 °FLight rain. Overcast.No wind70%30.20 "Hg10 mi
8:53 AM58 °FOvercast.5 mph72%30.19 "Hg10 mi
7:53 AM57 °FOvercast.6 mph72%30.18 "Hg10 mi
6:53 AM58 °FOvercast.3 mph67%30.15 "Hg10 mi
Weather by CustomWeather, © 2014

See weather overviewHow to use our weather pages